Regional Weather Roundup
Issued by NWS

Home | Current Version | Previous Version | Graphics & Text | Print | Product List | Glossary On
Versions: 1 2 3 4 5 6 7 8 9 10 11 12 13 14 15 16 17 18 19 20 21 22 23 24 25 26 27 28 29 30 31 32 33 34 35 36 37 38 39 40 41 42 43 44 45 46 47 48 49 50
883
ASUS45 KBOI 240110
RWRID

IDAHO REGIONAL WEATHER ROUNDUP
NATIONAL WEATHER SERVICE BOISE ID
600 PM MST THU FEB 23 2017

NOTE: "FAIR" INDICATES FEW OR NO CLOUDS BELOW 12000 FEET
WITH NO SIGNIFICANT WEATHER AND/OR OBSTRUCTIONS TO VISIBILITY

IDZ012-014-240200-
SOUTHWEST IDAHO


CITY           SKY/WX    TMP DP  RH WIND       PRES   REMARKS
BOISE          CLOUDY    32  24  72 NW21G31   29.95R WCI  20
CALDWELL       CLOUDY    35  23  61 W21       29.99R WCI  24
MOUNTAIN HOME  MOCLDY    32  27  80 NW28G33   29.93R WCI  18
$$

IDZ016-017-240200-
SOUTHCENTRAL IDAHO


CITY           SKY/WX    TMP DP  RH WIND       PRES   REMARKS
BURLEY         LGT SNOW  28  22  78 SW17      29.86R VSB 1   WCI  16
JEROME           N/A    N/A N/A N/A MISG      29.86R
TWIN FALLS     CLOUDY    25  21  85 W28G35    29.88R FOG     WCI   9
$$

IDZ019>023-240200-
SOUTHEAST IDAHO


CITY           SKY/WX    TMP DP  RH WIND       PRES   REMARKS
IDAHO FALLS    LGT SNOW  25  24  96 S16       29.78R FOG     WCI  12
POCATELLO      LGT SNOW  25  23  92 SW25G31   29.83R VSB 1   WCI   9
REXBURG        LGT SNOW  25  24  96 SW10      29.77R FOG     WCI  15
$$

IDZ006-010-011-018-031-032-240200-
CENTRAL IDAHO MOUNTAINS


CITY           SKY/WX    TMP DP  RH WIND       PRES   REMARKS
MCCALL         CLOUDY    24  11  57 N12G22    29.86R WCI  13
HAILEY         LGT SNOW  27  25  93 SE5       29.76R WCI  21
STANLEY          N/A     23  18  81 NW5       29.73R WCI  17
SALMON         CLOUDY    34  19  55 N6        29.82R WCI  29
CHALLIS        LGT SNOW  26  25  96 N6        29.78R FOG     WCI  19
$$

IDZ002-004-006-007-026-240200-
NORTHERN IDAHO


CITY           SKY/WX    TMP DP  RH WIND       PRES   REMARKS
LEWISTON       PTCLDY    38  24  57 N8        30.10R WCI  32
LOWELL           N/A     34  30  85 CALM      30.10R
COEUR D`ALENE  PTCLDY    31  26  82 SW9       30.06R WCI  23
MULLAN PASS    PTCLDY    16  15  96 NW5       29.86S WCI   9
$$




USA.gov is the U.S. government's official web portal to all federal, state and local government web resources and services.